This is the latest recevied weather packets stored in our database for station/object KG5MMT-12. If no packets are shown the sender has not sent any weather packets the latest 10 day(s).
| Time | Temp. | Humidity | Pressure | Rain* | Wind** | Luminosity | Snow |
|---|---|---|---|---|---|---|---|
| 1778088227 | 12.22° C | 44% | 0 hPa | 0 mm | - | - | - |
| 1778087927 | 11.67° C | 44% | 0 hPa | 0 mm | - | - | - |
| 1778087627 | 12.22° C | 45% | 0 hPa | 0 mm | - | - | - |
| 1778087327 | 11.67° C | 47% | 0 hPa | 0 mm | - | - | - |
| 1778087027 | 11.67° C | 46% | 0 hPa | 0 mm | - | - | - |
| 1778086727 | 11.67° C | 47% | 0 hPa | 0 mm | - | - | - |
| 1778086427 | 11.11° C | 48% | 0 hPa | 0 mm | - | - | - |
| 1778086127 | 10.56° C | 48% | 0 hPa | 0 mm | - | - | - |
| 1778085827 | 10.56° C | 48% | 0 hPa | 0 mm | - | - | - |
| 1778085527 | 10.56° C | 48% | 0 hPa | 0 mm | - | - | - |
| 1778085227 | 10.56° C | 51% | 0 hPa | 0 mm | - | - | - |
| 1778084927 | 10.56° C | 49% | 0 hPa | 0 mm | - | - | - |
| 1778084627 | 10.56° C | 52% | 0 hPa | 0 mm | - | - | - |
| 1778084327 | 10° C | 50% | 0 hPa | 0 mm | - | - | - |
| 1778084027 | 10° C | 52% | 0 hPa | 0 mm | - | - | - |
| 1778083727 | 10° C | 52% | 0 hPa | 0 mm | - | - | - |
| 1778083427 | 9.44° C | 53% | 0 hPa | 0 mm | - | - | - |
| 1778083127 | 9.44° C | 52% | 0 hPa | 0 mm | - | - | - |
| 1778082827 | 9.44° C | 56% | 0 hPa | 0 mm | - | - | - |
| 1778082527 | 9.44° C | 55% | 0 hPa | 0 mm | - | - | - |
| 1778082227 | 8.89° C | 54% | 0 hPa | 0 mm | - | - | - |
| 1778081927 | 8.89° C | 54% | 0 hPa | 0 mm | - | - | - |
| 1778081627 | 9.44° C | 55% | 0 hPa | 0 mm | - | - | - |
| 1778081327 | 9.44° C | 56% | 0 hPa | 0 mm | - | - | - |
| 1778081027 | 9.44° C | 56% | 0 hPa | 0 mm | - | - | - |
* Rain latest hour (hover to see other rain measurements)
** Current wind speed in m/s (hover to see current wind gust speed)